FW4680 Weather Reports


time (UTC)temp
F
wind
direction
speed
knots
gust
knots
rain 1hr
in
rain 24hr
in
rain mn
in
humidity
%
barometer
mb
20260508210038 70 206 0.9 6.1 0.00 0.00 0.00 53 1013.3
20260508204537 69 186 1.7 7.0 0.00 0.00 0.00 54 1013.6
20260508203036 70 144 1.7 7.8 0.00 0.00 0.00 50 1013.4
20260508201534 70 278 0.9 7.0 0.00 0.00 0.00 51 1013.9
20260508200033 70 115 1.7 7.0 0.00 0.00 0.00 50 1014.0
20260508194531 69 111 6.1 10.4 0.00 0.00 0.00 48 1014.2
20260508193033 69 111 3.5 9.6 0.00 0.00 0.00 47 1014.7
20260508191538 70 241 2.6 7.8 0.00 0.00 0.00 47 1014.8
20260508190035 70 143 1.7 7.0 0.00 0.00 0.00 45 1014.9
20260508184531 69 127 3.5 9.6 0.00 0.00 0.00 44 1015.0
20260508183028 70 186 0.9 4.3 0.00 0.00 0.00 45 1015.1
20260508181538 70 193 3.5 8.7 0.00 0.00 0.00 43 1015.3
20260508180025 70 274 0.9 5.2 0.00 0.00 0.00 41 1015.9
20260508174524 68 246 0.9 11.3 0.00 0.00 0.00 50 1015.7
20260508173024 68 103 3.5 9.6 0.00 0.00 0.00 48 1016.1
20260508171526 67 101 2.6 7.0 0.00 0.00 0.00 48 1016.2
20260508170022 68 219 0.0 7.8 0.00 0.00 0.00 49 1016.5
20260508164520 68 94 1.7 6.1 0.00 0.00 0.00 48 1016.6
20260508163018 67 82 0.9 6.1 0.00 0.00 0.00 49 1016.8
20260508161528 65 283 0.9 5.2 0.00 0.00 0.00 51 1017.0
20260508160015 65 302 0.9 4.3 0.00 0.00 0.00 51 1017.4
20260508154515 65 207 0.9 5.2 0.00 0.00 0.00 48 1017.5
20260508153023 65 58 2.6 7.0 0.00 0.00 0.00 50 1017.6
20260508151512 66 3 0.9 3.5 0.00 0.00 0.00 50 1017.5
20260508150014 64 80 1.7 4.3 0.00 0.00 0.00 54 1017.6
20260508144512 63 168 0.0 5.2 0.00 0.00 0.00 55 1017.7
20260508143013 63 95 1.7 5.2 0.00 0.00 0.00 54 1017.9
20260508141510 63 245 0.0 4.3 0.00 0.00 0.00 54 1017.8
20260508140008 61 41 1.7 4.3 0.00 0.00 0.00 58 1017.9
20260508134510 62 289 0.9 2.6 0.00 0.00 0.00 57 1017.9
20260508133003 61 129 0.9 2.6 0.00 0.00 0.00 59 1017.9
20260508131600 60 53 0.0 2.6 0.00 0.00 0.00 68 1017.8
20260508130059 58 143 0.9 2.6 0.00 0.01 0.00 70 1017.8
20260508124555 58 153 0.0 1.7 0.00 0.01 0.00 72 1017.7
20260508123052 56 139 0.0 0.9 0.00 0.01 0.00 75 1017.6
20260508121549 54 34 0.0 1.7 0.00 0.01 0.00 78 1017.5
20260508120045 51 290 0.0 1.7 0.00 0.15 0.00 83 1017.3
20260508114541 50 200 0.0 2.6 0.00 0.15 0.00 83 1017.0
20260508113040 49 86 0.0 1.7 0.00 0.15 0.00 90 1016.7
20260508111541 47 79 0.0 3.5 0.00 0.15 0.00 92 1016.4
20260508110037 45 225 0.0 1.7 0.00 0.19 0.00 95 1016.1
20260508104535 44 264 0.0 1.7 0.00 0.19 0.00 96 1016.0
20260508103042 44 271 0.0 0.9 0.00 0.19 0.00 95 1015.7
20260508101531 44 247 0.0 0.9 0.00 0.19 0.00 96 1015.4
20260508100034 44 222 0.0 0.0 0.00 0.19 0.00 95 1015.1
20260508094527 45 222 0.0 1.7 0.00 0.19 0.00 94 1015.0
20260508093033 45 304 0.0 0.0 0.00 0.19 0.00 94 1014.9
20260508091524 46 304 0.0 0.0 0.00 0.19 0.00 94 1014.9
20260508090026 46 304 0.0 0.0 0.00 0.19 0.00 92 1014.9
20260508084520 47 304 0.0 0.0 0.00 0.19 0.00 92 1014.7
20260508083017 47 304 0.0 0.9 0.00 0.19 0.00 91 1014.8
20260508081516 48 188 0.0 0.0 0.00 0.19 0.00 89 1014.5
20260508080013 48 210 0.0 0.0 0.00 0.19 0.00 88 1014.5
20260508074510 48 210 0.0 0.0 0.00 0.19 0.00 87 1014.4
20260508073008 49 210 0.0 0.0 0.00 0.19 0.00 86 1014.1
20260508071508 49 210 0.0 0.0 0.00 0.19 0.00 86 1014.2
20260508070005 52 336 0.9 3.5 0.00 0.19 0.00 82 1014.1
20260508064503 52 340 0.0 1.7 0.00 0.19 0.00 81 1014.0
20260508063003 52 343 1.7 7.8 0.00 0.19 0.00 82 1013.9
20260508061501 51 26 0.0 0.9 0.00 0.19 0.00 83 1013.7
20260508060121 52 70 0.0 0.9 0.00 0.57 0.00 81 1013.7
20260508054640 53 35 0.0 0.9 0.00 0.57 0.00 79 1013.9
20260508053056 54 39 0.0 7.0 0.00 0.57 0.00 77 1013.9
20260508051554 53 92 0.0 1.7 0.00 0.57 0.00 78 1013.8
20260508050057 53 218 0.0 3.5 0.00 0.66 0.00 79 1013.6
20260508044553 54 239 0.0 0.9 0.00 0.66 0.00 77 1013.6
20260508043058 55 264 0.0 3.5 0.00 0.66 0.00 75 1013.5
20260508041552 55 148 0.9 5.2 0.00 0.66 0.00 74 1013.2
20260508040044 54 90 0.0 0.0 0.00 0.66 0.66 74 1013.3
20260508034549 54 6 0.0 0.0 0.00 0.66 0.66 76 1013.2
20260508033041 54 51 0.0 0.0 0.00 0.66 0.66 75 1013.3
20260508031541 54 49 0.0 0.0 0.00 0.66 0.66 75 1013.2
20260508030045 55 152 0.0 3.5 0.00 0.67 0.66 77 1013.3
20260508024544 54 269 1.7 5.2 0.00 0.67 0.66 78 1012.9
20260508023039 55 276 0.0 2.6 0.00 0.67 0.66 76 1012.8
20260508021538 55 238 1.7 4.3 0.00 0.67 0.66 76 1012.7
20260508020037 55 330 0.0 5.2 0.00 0.69 0.66 76 1012.4
20260508014539 55 251 1.7 4.3 0.00 0.69 0.66 75 1012.2
20260508013035 55 117 0.0 1.7 0.00 0.69 0.66 75 1012.0
20260508011532 56 224 0.0 3.5 0.00 0.69 0.66 72 1011.9
20260508010045 57 207 0.0 7.0 0.00 0.83 0.66 71 1011.5
20260508004630 57 18 0.9 6.1 0.00 0.83 0.66 71 1011.3
20260508003028 57 263 0.0 4.3 0.00 0.83 0.66 71 1011.1
20260508001529 58 332 3.5 10.4 0.00 0.83 0.66 70 1010.8
20260508000025 58 306 4.3 13.9 0.00 0.90 0.66 69 1010.5
20260507234523 59 258 3.5 14.8 0.00 0.90 0.66 67 1010.2
20260507233021 59 37 3.5 17.4 0.00 0.90 0.66 67 1010.0
20260507231517 60 150 5.2 14.8 0.00 0.90 0.66 67 1009.7
20260507230019 61 271 5.2 17.4 0.00 0.91 0.66 69 1009.8
20260507224515 61 251 8.7 22.6 0.00 0.91 0.66 69 1009.1
20260507223009 62 323 7.0 20.9 0.00 0.91 0.66 69 1008.9
20260507221510 62 342 9.6 20.0 0.00 0.91 0.66 69 1008.7
20260507220009 64 248 8.7 22.6 0.00 0.91 0.66 68 1008.5
20260507214507 66 267 6.1 18.2 0.00 0.91 0.66 66 1007.9
20260507213006 67 302 4.3 18.2 0.00 0.91 0.66 66 1007.8
20260507211506 68 320 2.6 13.9 0.00 0.91 0.66 65 1007.5